Location: Roswell
(33.3943°N, 104.5230°W)
Time: 11:28:40
(UTC+00:00)

Transit 2A - Visible Passes

Search period start: 05 December 2025 00:00
Search period end: 15 December 2025 00:00
Orbit: 590 x 955 km, 66.7° (Epoch: 04 December)

Date Brightness Start Highest point End Pass type
(mag) Time Alt. Az. Time Alt. Az. Time Alt. Az.
05 Dec 7.3 12:38:42 10° S 12:43:32 45° ESE 12:48:54 10° NE visible
06 Dec 8.1 12:03:11 10° SSE 12:07:29 28° ESE 12:12:12 10° NE visible
07 Dec 9.8 00:21:21 10° W 00:23:21 12° W 00:25:19 10° WSW visible
07 Dec 8.8 11:28:14 10° SE 11:31:31 17° ESE 11:35:01 10° ENE visible
07 Dec 6.3 13:08:55 10° SW 13:13:57 51° WNW 13:19:34 10° NNE visible
08 Dec 6.0 12:32:29 10° SSW 12:37:39 80° WNW 12:43:26 10° NNE visible
09 Dec 6.4 11:56:21 10° SSW 12:01:26 65° ESE 12:07:07 10° NNE visible
10 Dec 7.3 11:20:33 10° S 11:25:19 40° ESE 11:30:36 10° NE visible
10 Dec 7.1 13:04:08 10° WSW 13:08:32 25° NW 13:13:18 10° N visible
11 Dec 8.1 10:48:07 23° SE 10:49:17 25° ESE 10:53:47 10° NE visible
11 Dec 6.6 12:28:40 19° WSW 12:32:03 38° WNW 12:37:27 10° N visible
12 Dec 8.9 10:15:13 13° E 10:15:13 13° E 10:16:23 10° ENE visible
12 Dec 6.1 11:55:41 58° WNW 11:55:41 58° WNW 12:01:25 10° NNE visible
13 Dec 7.3 11:21:57 34° NNE 11:21:57 34° NNE 11:25:12 10° NNE visible
13 Dec 7.8 13:02:23 13° WNW 13:03:22 13° NW 13:06:06 10° NNW visible
14 Dec 8.5 10:47:47 15° NE 10:47:47 15° NE 10:48:49 10° NE visible
14 Dec 7.7 12:28:12 18° NNW 12:28:12 18° NNW 12:30:53 10° N visible
